Location: Newark
(49.2191°N, 12.6671°E)
Time: 18:02:24
(UTC+00:00)

Transit 4A - Pass Details

Date: 02 February 2020
Orbit: 872 x 973 km, 66.8° (Epoch: 22 February)

Event Time Altitude Azimuth Distance (km) Brightness Sun altitude
Rises 07:22:36 0° 287° (WNW) 3,501 10.3 5.2°
Reaches altitude 10° 07:26:15 10° 310° (NW) 2,548 9.6 5.7°
Maximum altitude 07:29:41 16° 346° (NNW) 2,161 9.4 6.2°
Drops below altitude 10° 07:33:06 10° 22° (NNE) 2,534 10.1 6.6°
Sets 07:36:43 0° 44° (NE) 3,471 11.0 7.1°
